Weather WX

World > North America > United States > Ohio

Willetsville, Ohio Regional Weather

Lat: 39.17N, Lon: 83.58W
Wx Zone: OHZ080
Warning FLW WEATHER ALERT - FLASH FLOOD WATCH (More Info. Click Here) Warning
Feedback

Willetsville, OH Regional Weather

Expires:201906181200;;676880
ASUS41 KCLE 181112
RWRCLE
OHIO REGIONAL WEATHER ROUNDUP
NATIONAL WEATHER SERVICE WILMINGTON, OH
700 AM EDT TUE JUN 18 2019

NOTE: "FAIR" INDICATES FEW OR NO CLOUDS BELOW 12,000 FEET WITH NO
SIGNIFICANT WEATHER AND/OR OBSTRUCTIONS TO VISIBILITY.


OHZ042-051>053-060>062-070>072-077>081-181200-
  SOUTHWEST OHIO
  
CITY           SKY/WX    TMP DP  RH WIND       PRES   REMARKS
CINC-COVINGTON CLOUDY    69  67  93 S7        29.95S                  
CINC-LUNKEN    LGT RAIN  69  68  96 CALM      29.95S                  
HAMILTON       LGT RAIN  68  67  96 CALM      29.96S FOG              
DAYTON         CLOUDY    66  65  96 S5        29.96F FOG              
WRIGHT-PAT AFB CLOUDY    66  66 100 CALM      29.95F FOG              
DAYTON GENERAL FOG       69  67  93 VRB3      29.94F VSB 1/2          
WILMINGTON     CLOUDY    68  67  96 W7        29.95F                  
$$


SKY/WX - Weather  TMP - Temperature  DP - Dew Point  RH - Relative Humidity
WIND - Wind Direction/Speed PRES - Barometric Pressure VSB - Visibility
WCI - Wind Chill Index E13G22 Wind - East Wind 13 mph/Gusts of 22 mph